Year,Month,Day,Hour,Minute,Value (Times are PST for windspeed in km/hr)
2018,05,27,00,00,0.10
2018,05,27,00,01,0.30
2018,05,27,00,02,0.40
2018,05,27,00,03,0.00
2018,05,27,00,04,0.00
2018,05,27,00,05,0.00
2018,05,27,00,06,0.00
2018,05,27,00,07,0.00
2018,05,27,00,08,0.00
2018,05,27,00,09,0.00
2018,05,27,00,10,0.00
2018,05,27,00,11,0.00
2018,05,27,00,12,0.00
2018,05,27,00,13,0.00
2018,05,27,00,14,1.60
2018,05,27,00,15,0.70
2018,05,27,00,16,0.60
2018,05,27,00,17,0.20
2018,05,27,00,18,1.20
2018,05,27,00,19,0.50
2018,05,27,00,20,0.00
2018,05,27,00,21,0.10
2018,05,27,00,22,1.40
2018,05,27,00,23,1.10
2018,05,27,00,24,2.20
2018,05,27,00,25,0.90
2018,05,27,00,26,0.00
2018,05,27,00,27,0.10
2018,05,27,00,28,0.60
2018,05,27,00,29,0.20
2018,05,27,00,30,0.00
2018,05,27,00,31,0.70
2018,05,27,00,32,0.00
2018,05,27,00,33,0.10
2018,05,27,00,34,0.00
2018,05,27,00,35,0.10
2018,05,27,00,36,0.60
2018,05,27,00,37,0.00
2018,05,27,00,38,0.00
2018,05,27,00,39,0.00
2018,05,27,00,40,0.00
2018,05,27,00,41,0.00
2018,05,27,00,42,0.00
2018,05,27,00,43,0.00
2018,05,27,00,44,0.00
2018,05,27,00,45,0.00
2018,05,27,00,46,0.00
2018,05,27,00,47,0.10
2018,05,27,00,48,0.00
2018,05,27,00,49,0.00
2018,05,27,00,50,0.00
2018,05,27,00,51,0.00
2018,05,27,00,52,1.20
2018,05,27,00,53,0.60
2018,05,27,00,54,0.00
2018,05,27,00,55,0.00
2018,05,27,00,56,1.40
2018,05,27,00,57,0.20
2018,05,27,00,58,0.00
2018,05,27,00,59,0.00
2018,05,27,01,00,1.20
2018,05,27,01,01,0.20
2018,05,27,01,02,0.00
2018,05,27,01,03,0.20
2018,05,27,01,04,0.80
2018,05,27,01,05,0.80
2018,05,27,01,06,0.00
2018,05,27,01,07,0.10
2018,05,27,01,08,0.90
2018,05,27,01,09,0.20
2018,05,27,01,10,1.20
2018,05,27,01,11,1.50
2018,05,27,01,12,0.20
2018,05,27,01,13,0.90
2018,05,27,01,14,0.20
2018,05,27,01,15,2.00
2018,05,27,01,16,0.30
2018,05,27,01,17,0.00
2018,05,27,01,18,0.00
2018,05,27,01,19,0.00
2018,05,27,01,20,0.00
2018,05,27,01,21,1.00
2018,05,27,01,22,1.50
2018,05,27,01,23,1.50
2018,05,27,01,24,1.10
2018,05,27,01,25,1.10
2018,05,27,01,26,0.90
2018,05,27,01,27,0.00
2018,05,27,01,28,0.20
2018,05,27,01,29,0.60
2018,05,27,01,30,0.00
2018,05,27,01,31,0.00
2018,05,27,01,32,1.40
2018,05,27,01,33,0.90
2018,05,27,01,34,0.00
2018,05,27,01,35,0.00
2018,05,27,01,36,0.00
2018,05,27,01,37,1.40
2018,05,27,01,38,0.40
2018,05,27,01,39,0.00
2018,05,27,01,40,0.10
2018,05,27,01,41,1.70
2018,05,27,01,42,0.70
2018,05,27,01,43,0.20
2018,05,27,01,44,0.00
2018,05,27,01,45,0.30
2018,05,27,01,46,0.00
2018,05,27,01,47,0.00
2018,05,27,01,48,0.00
2018,05,27,01,49,0.00
2018,05,27,01,50,0.00
2018,05,27,01,51,0.00
2018,05,27,01,52,0.00
2018,05,27,01,53,0.00
2018,05,27,01,54,0.00
2018,05,27,01,55,0.00
2018,05,27,01,56,0.00
2018,05,27,01,57,0.00
2018,05,27,01,58,0.00
2018,05,27,01,59,0.00
2018,05,27,02,00,0.00
2018,05,27,02,01,0.00
2018,05,27,02,02,0.00
2018,05,27,02,03,0.00
2018,05,27,02,04,0.00
2018,05,27,02,05,0.00
2018,05,27,02,06,0.00
2018,05,27,02,07,0.00
2018,05,27,02,08,0.20
2018,05,27,02,09,0.00
2018,05,27,02,10,0.20
2018,05,27,02,11,2.00
2018,05,27,02,12,1.40
2018,05,27,02,13,0.20
2018,05,27,02,14,1.50
2018,05,27,02,15,1.70
2018,05,27,02,16,1.30
2018,05,27,02,17,1.80
2018,05,27,02,18,0.50
2018,05,27,02,19,1.50
2018,05,27,02,20,2.30
2018,05,27,02,21,0.60
2018,05,27,02,22,1.30
2018,05,27,02,23,0.20
2018,05,27,02,24,0.10
2018,05,27,02,25,0.90
2018,05,27,02,26,0.00
2018,05,27,02,27,0.00
2018,05,27,02,28,0.00
2018,05,27,02,29,0.00
2018,05,27,02,30,0.00
2018,05,27,02,31,0.00
2018,05,27,02,32,0.00
2018,05,27,02,33,0.00
2018,05,27,02,34,0.00
2018,05,27,02,35,0.00
2018,05,27,02,36,0.00
2018,05,27,02,37,0.00
2018,05,27,02,38,0.00
2018,05,27,02,39,0.00
2018,05,27,02,40,0.00
2018,05,27,02,41,0.00
2018,05,27,02,42,0.00
2018,05,27,02,43,0.00
2018,05,27,02,44,0.00
2018,05,27,02,45,0.00
2018,05,27,02,46,0.00
2018,05,27,02,47,0.00
2018,05,27,02,48,0.00
2018,05,27,02,49,1.30
2018,05,27,02,50,2.90
2018,05,27,02,51,5.40
2018,05,27,02,52,3.90
2018,05,27,02,53,3.10
2018,05,27,02,54,2.20
2018,05,27,02,55,4.20
2018,05,27,02,56,3.70
2018,05,27,02,57,3.40
2018,05,27,02,58,3.30
2018,05,27,02,59,2.80
2018,05,27,03,00,2.80
2018,05,27,03,01,2.40
2018,05,27,03,02,3.60
2018,05,27,03,03,1.50
2018,05,27,03,04,1.90
2018,05,27,03,05,2.70
2018,05,27,03,06,3.70
2018,05,27,03,07,5.00
2018,05,27,03,08,5.50
2018,05,27,03,09,3.00
2018,05,27,03,10,3.40
2018,05,27,03,11,3.40
2018,05,27,03,12,3.20
2018,05,27,03,13,3.00
2018,05,27,03,14,2.80
2018,05,27,03,15,2.80
2018,05,27,03,16,2.50
2018,05,27,03,17,2.40
2018,05,27,03,18,2.40
2018,05,27,03,19,2.70
2018,05,27,03,20,2.70
2018,05,27,03,21,2.70
2018,05,27,03,22,1.30
2018,05,27,03,23,1.50
2018,05,27,03,24,0.60
2018,05,27,03,25,1.60
2018,05,27,03,26,1.60
2018,05,27,03,27,2.80
2018,05,27,03,28,1.90
2018,05,27,03,29,1.10
2018,05,27,03,30,2.40
2018,05,27,03,31,2.40
2018,05,27,03,32,0.80
2018,05,27,03,33,1.50
2018,05,27,03,34,2.20
2018,05,27,03,35,1.70
2018,05,27,03,36,2.90
2018,05,27,03,37,4.30
2018,05,27,03,38,4.10
2018,05,27,03,39,5.00
2018,05,27,03,40,7.30
2018,05,27,03,41,3.00
2018,05,27,03,42,3.10
2018,05,27,03,43,2.50
2018,05,27,03,44,1.50
2018,05,27,03,45,2.30
2018,05,27,03,46,2.20
2018,05,27,03,47,2.30
2018,05,27,03,48,2.90
2018,05,27,03,49,2.70
2018,05,27,03,50,2.70
2018,05,27,03,51,1.50
2018,05,27,03,52,2.20
2018,05,27,03,53,3.10
2018,05,27,03,54,3.00
2018,05,27,03,55,4.00
2018,05,27,03,56,4.80
2018,05,27,03,57,3.60
2018,05,27,03,58,2.70
2018,05,27,03,59,2.60
2018,05,27,04,00,3.60
2018,05,27,04,01,3.80
2018,05,27,04,02,2.60
2018,05,27,04,03,3.10
2018,05,27,04,04,4.20
2018,05,27,04,05,5.70
2018,05,27,04,06,4.20
2018,05,27,04,07,4.40
2018,05,27,04,08,2.80
2018,05,27,04,09,2.90
2018,05,27,04,10,3.00
2018,05,27,04,11,3.10
2018,05,27,04,12,1.30
2018,05,27,04,13,2.30
2018,05,27,04,14,1.00
2018,05,27,04,15,0.60
2018,05,27,04,16,0.00
2018,05,27,04,17,0.00
2018,05,27,04,18,0.00
2018,05,27,04,19,0.00
2018,05,27,04,20,1.00
2018,05,27,04,21,0.50
2018,05,27,04,22,0.10
2018,05,27,04,23,0.40
2018,05,27,04,24,1.70
2018,05,27,04,25,2.30
2018,05,27,04,26,2.50
2018,05,27,04,27,1.90
2018,05,27,04,28,1.50
2018,05,27,04,29,0.60
2018,05,27,04,30,0.00
2018,05,27,04,31,0.50
2018,05,27,04,32,1.10
2018,05,27,04,33,0.00
2018,05,27,04,34,0.60
2018,05,27,04,35,1.40
2018,05,27,04,36,1.70
2018,05,27,04,37,2.60
2018,05,27,04,38,0.80
2018,05,27,04,39,1.10
2018,05,27,04,40,1.80
2018,05,27,04,41,0.20
2018,05,27,04,42,0.50
2018,05,27,04,43,0.00
2018,05,27,04,44,0.00
2018,05,27,04,45,0.30
2018,05,27,04,46,0.00
2018,05,27,04,47,1.50
2018,05,27,04,48,1.70
2018,05,27,04,49,0.70
2018,05,27,04,50,1.80
2018,05,27,04,51,0.90
2018,05,27,04,52,2.00
2018,05,27,04,53,2.00
2018,05,27,04,54,0.10
2018,05,27,04,55,0.00
2018,05,27,04,56,0.00
2018,05,27,04,57,0.00
2018,05,27,04,58,1.40
2018,05,27,04,59,0.20
2018,05,27,05,00,1.20
2018,05,27,05,01,1.30
2018,05,27,05,02,0.50
2018,05,27,05,03,1.50
2018,05,27,05,04,0.20
2018,05,27,05,05,0.40
2018,05,27,05,06,1.90
2018,05,27,05,07,0.60
2018,05,27,05,08,1.00
2018,05,27,05,09,0.50
2018,05,27,05,10,0.50
2018,05,27,05,11,0.00
2018,05,27,05,12,0.00
2018,05,27,05,13,0.00
2018,05,27,05,14,0.00
2018,05,27,05,15,0.00
2018,05,27,05,16,0.00
2018,05,27,05,17,0.00
2018,05,27,05,18,0.00
2018,05,27,05,19,0.10
2018,05,27,05,20,0.00
2018,05,27,05,21,0.70
2018,05,27,05,22,0.80
2018,05,27,05,23,0.00
2018,05,27,05,24,0.00
2018,05,27,05,25,0.00
2018,05,27,05,26,0.00
2018,05,27,05,27,0.00
2018,05,27,05,28,0.00
2018,05,27,05,29,0.00
2018,05,27,05,30,0.00
2018,05,27,05,31,0.00
2018,05,27,05,32,0.00
2018,05,27,05,33,0.00
2018,05,27,05,34,0.00
2018,05,27,05,35,0.00
2018,05,27,05,36,0.00
2018,05,27,05,37,0.00
2018,05,27,05,38,0.00
2018,05,27,05,39,0.00
2018,05,27,05,40,0.00
2018,05,27,05,41,0.00
2018,05,27,05,42,0.00
2018,05,27,05,43,0.00
2018,05,27,05,44,0.00
2018,05,27,05,45,1.90
2018,05,27,05,46,1.10
2018,05,27,05,47,0.80
2018,05,27,05,48,1.10
2018,05,27,05,49,0.20
2018,05,27,05,50,0.30
2018,05,27,05,51,2.30
2018,05,27,05,52,1.90
2018,05,27,05,53,1.10
2018,05,27,05,54,0.50
2018,05,27,05,55,0.80
2018,05,27,05,56,0.20
2018,05,27,05,57,0.50
2018,05,27,05,58,0.90
2018,05,27,05,59,1.20
2018,05,27,06,00,0.10
2018,05,27,06,01,0.00
2018,05,27,06,02,0.00
2018,05,27,06,03,0.00
2018,05,27,06,04,0.00
2018,05,27,06,05,0.00
2018,05,27,06,06,0.00
2018,05,27,06,07,0.00
2018,05,27,06,08,1.00
2018,05,27,06,09,1.20
2018,05,27,06,10,1.10
2018,05,27,06,11,0.80
2018,05,27,06,12,1.20
2018,05,27,06,13,1.70
2018,05,27,06,14,0.20
2018,05,27,06,15,1.50
2018,05,27,06,16,0.80
2018,05,27,06,17,0.10
2018,05,27,06,18,0.00
2018,05,27,06,19,0.90
2018,05,27,06,20,0.20
2018,05,27,06,21,0.00
2018,05,27,06,22,0.00
2018,05,27,06,23,0.10
2018,05,27,06,24,0.00
2018,05,27,06,25,0.00
2018,05,27,06,26,0.00
2018,05,27,06,27,0.00
2018,05,27,06,28,0.00
2018,05,27,06,29,0.00
2018,05,27,06,30,0.00
2018,05,27,06,31,0.10
2018,05,27,06,32,0.00
2018,05,27,06,33,0.00
2018,05,27,06,34,0.00
2018,05,27,06,35,0.00
2018,05,27,06,36,0.00
2018,05,27,06,37,1.00
2018,05,27,06,38,1.30
2018,05,27,06,39,0.80
2018,05,27,06,40,0.20
2018,05,27,06,41,0.70
2018,05,27,06,42,0.40
2018,05,27,06,43,0.00
2018,05,27,06,44,0.00
2018,05,27,06,45,0.00
2018,05,27,06,46,0.00
2018,05,27,06,47,0.00
2018,05,27,06,48,0.00
2018,05,27,06,49,0.00
2018,05,27,06,50,0.00
2018,05,27,06,51,0.00
2018,05,27,06,52,0.00
2018,05,27,06,53,0.00
2018,05,27,06,54,0.00
2018,05,27,06,55,0.10
2018,05,27,06,56,0.50
2018,05,27,06,57,0.60
2018,05,27,06,58,1.50
2018,05,27,06,59,0.50
2018,05,27,07,00,0.00
2018,05,27,07,01,0.10
2018,05,27,07,02,0.40
2018,05,27,07,03,0.00
2018,05,27,07,04,0.00
2018,05,27,07,05,0.00
2018,05,27,07,06,0.00
2018,05,27,07,07,0.00
2018,05,27,07,08,0.00
2018,05,27,07,09,0.20
2018,05,27,07,10,0.20
2018,05,27,07,11,0.00
2018,05,27,07,12,0.00
2018,05,27,07,13,0.00
2018,05,27,07,14,0.00
2018,05,27,07,15,0.00
2018,05,27,07,16,0.00
2018,05,27,07,17,0.00
2018,05,27,07,18,0.10
2018,05,27,07,19,0.00
2018,05,27,07,20,0.00
2018,05,27,07,21,0.00
2018,05,27,07,22,0.30
2018,05,27,07,23,0.20
2018,05,27,07,24,0.20
2018,05,27,07,25,0.30
2018,05,27,07,26,0.70
2018,05,27,07,27,0.90
2018,05,27,07,28,2.10
2018,05,27,07,29,2.50
2018,05,27,07,30,3.10
2018,05,27,07,31,4.00
2018,05,27,07,32,1.60
2018,05,27,07,33,3.80
2018,05,27,07,34,4.10
2018,05,27,07,35,1.80
2018,05,27,07,36,2.50
2018,05,27,07,37,2.70
2018,05,27,07,38,0.60
2018,05,27,07,39,0.20
2018,05,27,07,40,2.50
2018,05,27,07,41,1.70
2018,05,27,07,42,0.80
2018,05,27,07,43,1.00
2018,05,27,07,44,5.60
2018,05,27,07,45,2.70
2018,05,27,07,46,2.10
2018,05,27,07,47,2.50
2018,05,27,07,48,2.20
2018,05,27,07,49,4.80
2018,05,27,07,50,5.20
2018,05,27,07,51,4.50
2018,05,27,07,52,2.60
2018,05,27,07,53,8.30
2018,05,27,07,54,6.70
2018,05,27,07,55,4.00
2018,05,27,07,56,4.20
2018,05,27,07,57,3.60
2018,05,27,07,58,6.00
2018,05,27,07,59,4.50
2018,05,27,08,00,5.30
2018,05,27,08,01,2.00
2018,05,27,08,02,3.70
2018,05,27,08,03,4.40
2018,05,27,08,04,6.10
2018,05,27,08,05,3.50
2018,05,27,08,06,2.30
2018,05,27,08,07,4.10
2018,05,27,08,08,3.80
2018,05,27,08,09,5.20
2018,05,27,08,10,4.20
2018,05,27,08,11,5.10
2018,05,27,08,12,2.70
2018,05,27,08,13,5.10
2018,05,27,08,14,3.60
2018,05,27,08,15,1.20
2018,05,27,08,16,5.10
2018,05,27,08,17,7.50
2018,05,27,08,18,5.00
2018,05,27,08,19,5.60
2018,05,27,08,20,5.30
2018,05,27,08,21,3.90
2018,05,27,08,22,1.40
2018,05,27,08,23,2.90
2018,05,27,08,24,2.00
2018,05,27,08,25,3.20
2018,05,27,08,26,1.50
2018,05,27,08,27,2.70
2018,05,27,08,28,4.30
2018,05,27,08,29,5.30
2018,05,27,08,30,4.30
2018,05,27,08,31,2.00
2018,05,27,08,32,4.10
2018,05,27,08,33,6.20
2018,05,27,08,34,6.00
2018,05,27,08,35,1.50
2018,05,27,08,36,0.40
2018,05,27,08,37,5.40
2018,05,27,08,38,4.00
2018,05,27,08,39,5.30
2018,05,27,08,40,1.90
2018,05,27,08,41,1.40
2018,05,27,08,42,0.00
2018,05,27,08,43,0.90
2018,05,27,08,44,2.50
2018,05,27,08,45,2.40
2018,05,27,08,46,3.90
2018,05,27,08,47,5.30
2018,05,27,08,48,5.00
2018,05,27,08,49,0.80
2018,05,27,08,50,1.50
2018,05,27,08,51,6.10
2018,05,27,08,52,4.30
2018,05,27,08,53,2.90
2018,05,27,08,54,3.30
2018,05,27,08,55,5.00
2018,05,27,08,56,4.70
2018,05,27,08,57,2.30
2018,05,27,08,58,1.80
2018,05,27,08,59,3.00
2018,05,27,09,00,2.60
2018,05,27,09,01,4.30
2018,05,27,09,02,3.10
2018,05,27,09,03,5.10
2018,05,27,09,04,6.10
2018,05,27,09,05,4.30
2018,05,27,09,06,4.40
2018,05,27,09,07,1.60
2018,05,27,09,08,4.50
2018,05,27,09,09,5.60
2018,05,27,09,10,4.60
2018,05,27,09,11,6.00
2018,05,27,09,12,6.70
2018,05,27,09,13,4.60
2018,05,27,09,14,5.10
2018,05,27,09,15,7.00
2018,05,27,09,16,7.40
2018,05,27,09,17,8.80
2018,05,27,09,18,7.40
2018,05,27,09,19,5.60
2018,05,27,09,20,3.70
2018,05,27,09,21,5.70
2018,05,27,09,22,5.50
2018,05,27,09,23,7.90
2018,05,27,09,24,6.40
2018,05,27,09,25,7.40
2018,05,27,09,26,10.10
2018,05,27,09,27,8.50
2018,05,27,09,28,9.30
2018,05,27,09,29,6.30
2018,05,27,09,30,4.90
2018,05,27,09,31,4.60
2018,05,27,09,32,6.80
2018,05,27,09,33,5.80
2018,05,27,09,34,5.40
2018,05,27,09,35,4.80
2018,05,27,09,36,6.20
2018,05,27,09,37,4.80
2018,05,27,09,38,4.90
2018,05,27,09,39,5.20
2018,05,27,09,40,5.90
2018,05,27,09,41,4.50
2018,05,27,09,42,8.50
2018,05,27,09,43,10.60
2018,05,27,09,44,10.80
2018,05,27,09,45,7.30
2018,05,27,09,46,8.40
2018,05,27,09,47,6.80
2018,05,27,09,48,8.40
2018,05,27,09,49,6.20
2018,05,27,09,50,5.60
2018,05,27,09,51,5.60
2018,05,27,09,52,6.70
2018,05,27,09,53,7.60
2018,05,27,09,54,7.30
2018,05,27,09,55,6.70
2018,05,27,09,56,9.20
2018,05,27,09,57,3.90
2018,05,27,09,58,9.00
2018,05,27,09,59,4.80
2018,05,27,10,00,4.60
2018,05,27,10,01,3.40
2018,05,27,10,02,1.50
2018,05,27,10,03,0.80
2018,05,27,10,04,4.60
2018,05,27,10,05,8.10
2018,05,27,10,06,7.20
2018,05,27,10,07,3.10
2018,05,27,10,08,8.30
2018,05,27,10,09,6.00
2018,05,27,10,10,2.20
2018,05,27,10,11,3.80
2018,05,27,10,12,5.90
2018,05,27,10,13,4.20
2018,05,27,10,14,8.40
2018,05,27,10,15,4.80
2018,05,27,10,16,3.10
2018,05,27,10,17,3.30
2018,05,27,10,18,3.70
2018,05,27,10,19,2.40
2018,05,27,10,20,1.80
2018,05,27,10,21,1.90
2018,05,27,10,22,1.90
2018,05,27,10,23,2.60
2018,05,27,10,24,4.50
2018,05,27,10,25,5.40
2018,05,27,10,26,3.60
2018,05,27,10,27,7.40
2018,05,27,10,28,2.40
2018,05,27,10,29,1.10
2018,05,27,10,30,1.00
2018,05,27,10,31,1.50
2018,05,27,10,32,0.80
2018,05,27,10,33,2.60
2018,05,27,10,34,7.30
2018,05,27,10,35,3.90
2018,05,27,10,36,2.80
2018,05,27,10,37,9.50
2018,05,27,10,38,4.00
2018,05,27,10,39,3.80
2018,05,27,10,40,11.20
2018,05,27,10,41,5.60
2018,05,27,10,42,1.80
2018,05,27,10,43,2.30
2018,05,27,10,44,2.80
2018,05,27,10,45,6.20
2018,05,27,10,46,11.00
2018,05,27,10,47,13.00
2018,05,27,10,48,9.60
2018,05,27,10,49,6.90
2018,05,27,10,50,6.20
2018,05,27,10,51,5.10
2018,05,27,10,52,2.70
2018,05,27,10,53,7.70
2018,05,27,10,54,6.80
2018,05,27,10,55,4.70
2018,05,27,10,56,6.80
2018,05,27,10,57,4.70
2018,05,27,10,58,5.20
2018,05,27,10,59,2.20
2018,05,27,11,00,2.50
2018,05,27,11,01,5.30
2018,05,27,11,02,1.70
2018,05,27,11,03,0.40
2018,05,27,11,04,2.50
2018,05,27,11,05,3.20
2018,05,27,11,06,1.40
2018,05,27,11,07,1.60
2018,05,27,11,08,1.40
2018,05,27,11,09,1.40
2018,05,27,11,10,1.30
2018,05,27,11,11,0.60
2018,05,27,11,12,1.50
2018,05,27,11,13,2.40
2018,05,27,11,14,3.90
2018,05,27,11,15,5.90
2018,05,27,11,16,9.00
2018,05,27,11,17,8.50
2018,05,27,11,18,9.00
2018,05,27,11,19,9.40
2018,05,27,11,20,6.70
2018,05,27,11,21,10.20
2018,05,27,11,22,8.10
2018,05,27,11,23,12.30
2018,05,27,11,24,8.80
2018,05,27,11,25,12.60
2018,05,27,11,26,10.70
2018,05,27,11,27,8.70
2018,05,27,11,28,6.30
2018,05,27,11,29,10.00
2018,05,27,11,30,9.20
2018,05,27,11,31,8.60
2018,05,27,11,32,9.20
2018,05,27,11,33,6.40
2018,05,27,11,34,3.20
2018,05,27,11,35,7.70
2018,05,27,11,36,3.60
2018,05,27,11,37,2.10
2018,05,27,11,38,3.40
2018,05,27,11,39,2.50
2018,05,27,11,40,2.00
2018,05,27,11,41,2.70
2018,05,27,11,42,4.10
2018,05,27,11,43,5.20
2018,05,27,11,44,3.60
2018,05,27,11,45,5.70
2018,05,27,11,46,4.10
2018,05,27,11,47,8.70
2018,05,27,11,48,11.10
2018,05,27,11,49,4.30
2018,05,27,11,50,2.30
2018,05,27,11,51,5.90
2018,05,27,11,52,3.10
2018,05,27,11,53,1.00
2018,05,27,11,54,3.10
2018,05,27,11,55,2.60
2018,05,27,11,56,5.50
2018,05,27,11,57,2.50
2018,05,27,11,58,0.80
2018,05,27,11,59,3.90
2018,05,27,12,00,4.10
2018,05,27,12,01,3.00
2018,05,27,12,02,2.60
2018,05,27,12,03,2.50
2018,05,27,12,04,2.30
2018,05,27,12,05,3.00
2018,05,27,12,06,6.90
2018,05,27,12,07,2.60
2018,05,27,12,08,2.20
2018,05,27,12,09,2.20
2018,05,27,12,10,1.40
2018,05,27,12,11,3.40
2018,05,27,12,12,4.20
2018,05,27,12,13,2.60
2018,05,27,12,14,2.40
2018,05,27,12,15,1.70
2018,05,27,12,16,3.40
2018,05,27,12,17,5.90
2018,05,27,12,18,2.10
2018,05,27,12,19,3.20
2018,05,27,12,20,2.30
2018,05,27,12,21,1.90
2018,05,27,12,22,1.20
2018,05,27,12,23,1.20
2018,05,27,12,24,4.10
2018,05,27,12,25,1.20
2018,05,27,12,26,2.70
2018,05,27,12,27,5.10
2018,05,27,12,28,2.50
2018,05,27,12,29,7.90
2018,05,27,12,30,3.90
2018,05,27,12,31,3.60
2018,05,27,12,32,5.40
2018,05,27,12,33,3.40
2018,05,27,12,34,6.40
2018,05,27,12,35,5.10
2018,05,27,12,36,3.30
2018,05,27,12,37,2.30
2018,05,27,12,38,2.20
2018,05,27,12,39,4.10
2018,05,27,12,40,1.40
2018,05,27,12,41,4.90
2018,05,27,12,42,3.50
2018,05,27,12,43,7.20
2018,05,27,12,44,4.70
2018,05,27,12,45,1.50
2018,05,27,12,46,3.90
2018,05,27,12,47,3.90
2018,05,27,12,48,2.00
2018,05,27,12,49,2.00
2018,05,27,12,50,4.20
2018,05,27,12,51,2.00
2018,05,27,12,52,1.90
2018,05,27,12,53,1.00
2018,05,27,12,54,4.20
2018,05,27,12,55,3.30
2018,05,27,12,56,6.00
2018,05,27,12,57,3.70
2018,05,27,12,58,5.40
2018,05,27,12,59,4.10
2018,05,27,13,00,4.30
2018,05,27,13,01,5.00
2018,05,27,13,02,4.80
2018,05,27,13,03,7.20
2018,05,27,13,04,6.10
2018,05,27,13,05,4.40
2018,05,27,13,06,8.90
2018,05,27,13,07,5.70
2018,05,27,13,08,4.50
2018,05,27,13,09,3.70
2018,05,27,13,10,12.30
2018,05,27,13,11,10.60
2018,05,27,13,12,5.20
2018,05,27,13,13,1.90
2018,05,27,13,14,5.00
2018,05,27,13,15,3.10
2018,05,27,13,16,5.70
2018,05,27,13,17,6.30
2018,05,27,13,18,2.30
2018,05,27,13,19,3.60
2018,05,27,13,20,7.20
2018,05,27,13,21,4.60
2018,05,27,13,22,3.30
2018,05,27,13,23,7.70
2018,05,27,13,24,5.60
2018,05,27,13,25,7.40
2018,05,27,13,26,6.30
2018,05,27,13,27,8.50
2018,05,27,13,28,4.70
2018,05,27,13,29,2.50
2018,05,27,13,30,6.20
2018,05,27,13,31,5.20
2018,05,27,13,32,5.50
2018,05,27,13,33,5.70
2018,05,27,13,34,5.20
2018,05,27,13,35,3.90
2018,05,27,13,36,6.70
2018,05,27,13,37,10.70
2018,05,27,13,38,7.70
2018,05,27,13,39,6.80
2018,05,27,13,40,7.50
2018,05,27,13,41,7.80
2018,05,27,13,42,4.10
2018,05,27,13,43,9.70
2018,05,27,13,44,7.90
2018,05,27,13,45,8.50
2018,05,27,13,46,9.40
2018,05,27,13,47,8.70
2018,05,27,13,48,7.60
2018,05,27,13,49,10.10
2018,05,27,13,50,7.60
2018,05,27,13,51,8.60
2018,05,27,13,52,6.70
2018,05,27,13,53,2.60
2018,05,27,13,54,3.00
2018,05,27,13,55,1.80
2018,05,27,13,56,4.00
2018,05,27,13,57,7.90
2018,05,27,13,58,3.30
2018,05,27,13,59,5.40
2018,05,27,14,00,8.40
2018,05,27,14,01,3.10
2018,05,27,14,02,3.70
2018,05,27,14,03,9.20
2018,05,27,14,04,10.90
2018,05,27,14,05,4.10
2018,05,27,14,06,3.40
2018,05,27,14,07,1.50
2018,05,27,14,08,4.50
2018,05,27,14,09,6.80
2018,05,27,14,10,11.30
2018,05,27,14,11,5.20
2018,05,27,14,12,3.90
2018,05,27,14,13,7.60
2018,05,27,14,14,8.30
2018,05,27,14,15,9.00
2018,05,27,14,16,3.50
2018,05,27,14,17,6.10
2018,05,27,14,18,10.60
2018,05,27,14,19,6.40
2018,05,27,14,20,5.50
2018,05,27,14,21,6.30
2018,05,27,14,22,9.30
2018,05,27,14,23,2.30
2018,05,27,14,24,4.80
2018,05,27,14,25,9.10
2018,05,27,14,26,9.30
2018,05,27,14,27,7.00
2018,05,27,14,28,7.10
2018,05,27,14,29,7.30
2018,05,27,14,30,5.30
2018,05,27,14,31,4.50
2018,05,27,14,32,3.10
2018,05,27,14,33,3.70
2018,05,27,14,34,4.20
2018,05,27,14,35,5.80
2018,05,27,14,36,9.80
2018,05,27,14,37,2.00
2018,05,27,14,38,0.80
2018,05,27,14,39,4.40
2018,05,27,14,40,4.00
2018,05,27,14,41,5.00
2018,05,27,14,42,8.00
2018,05,27,14,43,4.50
2018,05,27,14,44,4.70
2018,05,27,14,45,2.30
2018,05,27,14,46,1.20
2018,05,27,14,47,1.50
2018,05,27,14,48,2.60
2018,05,27,14,49,3.20
2018,05,27,14,50,5.60
2018,05,27,14,51,3.90
2018,05,27,14,52,4.20
2018,05,27,14,53,2.80
2018,05,27,14,54,0.80
2018,05,27,14,55,1.70
2018,05,27,14,56,5.10
2018,05,27,14,57,6.60
2018,05,27,14,58,5.80
2018,05,27,14,59,2.50
2018,05,27,15,00,3.40
2018,05,27,15,01,7.60
2018,05,27,15,02,5.60
2018,05,27,15,03,1.30
2018,05,27,15,04,7.50
2018,05,27,15,05,6.40
2018,05,27,15,06,4.30
2018,05,27,15,07,3.40
2018,05,27,15,08,1.80
2018,05,27,15,09,5.20
2018,05,27,15,10,6.00
2018,05,27,15,11,7.10
2018,05,27,15,12,1.80
2018,05,27,15,13,2.80
2018,05,27,15,14,3.40
2018,05,27,15,15,3.50
2018,05,27,15,16,6.30
2018,05,27,15,17,12.40
2018,05,27,15,18,6.50
2018,05,27,15,19,5.30
2018,05,27,15,20,4.00
2018,05,27,15,21,4.30
2018,05,27,15,22,4.10
2018,05,27,15,23,8.10
2018,05,27,15,24,4.90
2018,05,27,15,25,8.80
2018,05,27,15,26,3.60
2018,05,27,15,27,5.80
2018,05,27,15,28,8.00
2018,05,27,15,29,6.90
2018,05,27,15,30,3.60
2018,05,27,15,31,1.90
2018,05,27,15,32,5.60
2018,05,27,15,33,2.20
2018,05,27,15,34,3.40
2018,05,27,15,35,3.50
2018,05,27,15,36,6.50
2018,05,27,15,37,4.20
2018,05,27,15,38,8.20
2018,05,27,15,39,6.10
2018,05,27,15,40,6.90
2018,05,27,15,41,5.70
2018,05,27,15,42,4.00
2018,05,27,15,43,7.90
2018,05,27,15,44,7.00
2018,05,27,15,45,8.40
2018,05,27,15,46,8.40
2018,05,27,15,47,8.90
2018,05,27,15,48,4.60
2018,05,27,15,49,7.60
2018,05,27,15,50,5.10
2018,05,27,15,51,5.10
2018,05,27,15,52,5.50
2018,05,27,15,53,3.90
2018,05,27,15,54,5.10
2018,05,27,15,55,5.10
2018,05,27,15,56,7.60
2018,05,27,15,57,5.70
2018,05,27,15,58,4.30
2018,05,27,15,59,4.90
2018,05,27,16,00,4.10
2018,05,27,16,01,10.80
2018,05,27,16,02,6.10
2018,05,27,16,03,6.90
2018,05,27,16,04,9.30
2018,05,27,16,05,3.90
2018,05,27,16,06,3.40
2018,05,27,16,07,2.30
2018,05,27,16,08,5.70
2018,05,27,16,09,2.80
2018,05,27,16,10,2.50
2018,05,27,16,11,0.80
2018,05,27,16,12,2.40
2018,05,27,16,13,3.00
2018,05,27,16,14,1.60
2018,05,27,16,15,3.10
2018,05,27,16,16,4.20
2018,05,27,16,17,2.10
2018,05,27,16,18,4.10
2018,05,27,16,19,2.20
2018,05,27,16,20,4.40
2018,05,27,16,21,8.80
2018,05,27,16,22,2.20
2018,05,27,16,23,2.80
2018,05,27,16,24,2.30
2018,05,27,16,25,1.10
2018,05,27,16,26,2.70
2018,05,27,16,27,4.40
2018,05,27,16,28,1.50
2018,05,27,16,29,1.00
2018,05,27,16,30,1.40
2018,05,27,16,31,2.60
2018,05,27,16,32,5.40
2018,05,27,16,33,2.90
2018,05,27,16,34,0.90
2018,05,27,16,35,2.10
2018,05,27,16,36,3.00
2018,05,27,16,37,2.20
2018,05,27,16,38,5.00
2018,05,27,16,39,3.10
2018,05,27,16,40,2.80
2018,05,27,16,41,4.20
2018,05,27,16,42,2.30
2018,05,27,16,43,2.60
2018,05,27,16,44,4.30
2018,05,27,16,45,1.90
2018,05,27,16,46,4.70
2018,05,27,16,47,9.30
2018,05,27,16,48,0.90
2018,05,27,16,49,6.40
2018,05,27,16,50,4.70
2018,05,27,16,51,5.50
2018,05,27,16,52,12.10
2018,05,27,16,53,4.90
2018,05,27,16,54,3.50
2018,05,27,16,55,3.10
2018,05,27,16,56,3.80
2018,05,27,16,57,1.10
2018,05,27,16,58,7.40
2018,05,27,16,59,3.10
2018,05,27,17,00,0.40
2018,05,27,17,01,1.90
2018,05,27,17,02,3.10
2018,05,27,17,03,8.40
2018,05,27,17,04,6.50
2018,05,27,17,05,3.70
2018,05,27,17,06,3.90
2018,05,27,17,07,3.50
2018,05,27,17,08,10.60
2018,05,27,17,09,3.10
2018,05,27,17,10,6.10
2018,05,27,17,11,3.70
2018,05,27,17,12,3.90
2018,05,27,17,13,3.10
2018,05,27,17,14,4.20
2018,05,27,17,15,7.00
2018,05,27,17,16,4.40
2018,05,27,17,17,1.50
2018,05,27,17,18,3.50
2018,05,27,17,19,9.20
2018,05,27,17,20,8.80
2018,05,27,17,21,10.50
2018,05,27,17,22,5.70
2018,05,27,17,23,8.60
2018,05,27,17,24,6.20
2018,05,27,17,25,4.10
2018,05,27,17,26,2.50
2018,05,27,17,27,7.80
2018,05,27,17,28,7.50
2018,05,27,17,29,8.70
2018,05,27,17,30,3.10
2018,05,27,17,31,2.60
2018,05,27,17,32,2.30
2018,05,27,17,33,1.30
2018,05,27,17,34,6.70
2018,05,27,17,35,6.80
2018,05,27,17,36,4.40
2018,05,27,17,37,7.60
2018,05,27,17,38,7.70
2018,05,27,17,39,5.60
2018,05,27,17,40,9.30
2018,05,27,17,41,5.40
2018,05,27,17,42,4.30
2018,05,27,17,43,10.20
2018,05,27,17,44,3.80
2018,05,27,17,45,1.00
2018,05,27,17,46,2.50
2018,05,27,17,47,3.10
2018,05,27,17,48,0.30
2018,05,27,17,49,1.70
2018,05,27,17,50,8.00
2018,05,27,17,51,5.70
2018,05,27,17,52,3.20
2018,05,27,17,53,2.10
2018,05,27,17,54,3.30
2018,05,27,17,55,3.60
2018,05,27,17,56,3.60
2018,05,27,17,57,2.50
2018,05,27,17,58,1.80
2018,05,27,17,59,4.30
2018,05,27,18,00,3.20
2018,05,27,18,01,7.10
2018,05,27,18,02,8.00
2018,05,27,18,03,4.60
2018,05,27,18,04,10.00
2018,05,27,18,05,8.70